Location: Rancho Del Sol Observatory
(38.7214°N, 120.6350°W)
Time: 15:33:51
(UTC-08:00)

Courier 1B Rocket - Pass Details

Date: 03 February 2020
Orbit: 920 x 1202 km, 28.2° (Epoch: 27 February)

Event Time Altitude Azimuth Distance (km) Brightness Sun altitude
Rises 11:57:45 0° 263° (W) 4,059 8.3 34.6°
Reaches altitude 10° 12:01:09 10° 251° (WSW) 3,065 7.9 34.7°
Maximum altitude 12:07:09 26° 199° (SSW) 2,052 8.4 34.7°
Drops below altitude 10° 12:12:52 10° 145° (SE) 2,909 8.4 34.8°
Sets 12:16:00 0° 133° (SE) 3,813 8.6 34.8°
